Location: Bronnegerveen
(52.9548°N, 6.8388°E)
Time: 02:13:22
(UTC+00:00)

CZ-2C R/B - Pass Details

Date: 15 June 2025
Orbit: 783 x 866 km, 98.4° (Epoch: 07 July)

Event Time Altitude Azimuth Distance (km) Brightness Sun altitude
Exits shadow 00:14:32 14° 158° (SSE) 2,092 4.3 -13.2°
Maximum altitude 00:19:04 82° 72° (ENE) 821 2.7 -13.1°
Drops below altitude 10° 00:24:26 10° 346° (NNW) 2,425 6.2 -12.9°
Sets 00:26:49 0° 346° (NNW) 3,375 7.1 -12.8°
